Flag for Congo Weather past 2 weeks in Brazzaville, Congo

77 °F

Thunderstorms. Passing clouds.

Feels Like: 79 °F
Forecast: 74 / 83 °F
Wind: No wind

Location: Brazzaville / Maya-Maya

Current Time: Nov 28, 2015 at 12:53:56 AM

Latest Report: Nov 28, 2015 at 12:00 AM

Visibility: 5 mi

Pressure: 29.92 "Hg

Humidity: 79%

Dew point: 70 °F

Location of BrazzavilleLocation

Historic Weather in Brazzaville — Graph


Brazzaville temperature yesterday

Maximum temperature yesterday: 91 °F (at 2:00 PM)
Minimum temperature yesterday: 75 °F (at 6:00 AM)
Average temperature yesterday: 81 °F

Past Weeks' High & Low Weather Summary

High91 °F (Nov 13, 1:00 PM)100% (Nov 14, 8:00 AM)30.01 "Hg (Nov 14, 8:00 AM)
Low70 °F (Nov 25, 5:00 AM)49% (Nov 17, 2:00 PM)29.71 "Hg (Nov 22, 4:00 PM)
Average80 °F79%29.88 "Hg
* Reported Nov 12 11:00 PM — Nov 27 11:00 PM, Brazzaville, Weather by CustomWeather, © 2015

Note: Actual official high and low records may vary slightly from our data, if they occured in-between our weather recording intervals... More about our weather records


Brazzaville weather history for previous 24 hours

Time TempWeatherWind HumidityBarometerVisibility
11:00 PM
Fri, Nov 27
77 °FThunderstorms. Passing clouds.7 mph83%29.92 "Hg5 mi
10:00 PM77 °FThunderstorms. Passing clouds.No wind83%29.92 "Hg5 mi
9:00 PM77 °FThunderstorms. Passing clouds.No wind89%29.89 "Hg5 mi
8:00 PM77 °FThunderstorms. Partly cloudy.No wind83%29.86 "Hg5 mi
7:00 PM77 °FThunderstorms. Passing clouds.No wind83%29.83 "Hg5 mi
6:00 PM79 °FThunderstorms. Passing clouds.21 mph74%29.80 "Hg5 mi
5:56 PM79 °FThunderstorms. Passing clouds.21 mph74%29.80 "Hg5 mi
5:00 PM91 °FScattered clouds.7 mph52%29.77 "HgN/A
4:00 PM91 °FScattered clouds.6 mph56%29.74 "HgN/A
3:00 PM91 °FScattered clouds.6 mph59%29.77 "HgN/A
2:00 PM91 °FScattered clouds.6 mph56%29.80 "HgN/A
1:00 PM90 °FScattered clouds.7 mph59%29.83 "HgN/A
12:00 PM88 °FScattered clouds.6 mph66%29.86 "HgN/A
11:00 AM86 °FScattered clouds.6 mph66%29.89 "HgN/A
10:00 AM82 °FScattered clouds.9 mph79%29.92 "HgN/A
9:00 AM81 °FScattered clouds.6 mph84%29.92 "HgN/A
7:00 AM77 °FBroken clouds.3 mph94%29.89 "Hg5 mi
6:00 AM75 °FThunderstorms. Partly sunny.2 mph94%29.89 "Hg5 mi
5:00 AM77 °FThunderstorms. Passing clouds.3 mph89%29.86 "Hg4 mi
4:00 AM77 °FPassing clouds.5 mph83%29.83 "Hg5 mi
3:00 AM77 °FPassing clouds.3 mph83%29.83 "Hg5 mi
2:00 AM77 °FPassing clouds.2 mph83%29.83 "Hg5 mi
1:00 AM77 °FPassing clouds.7 mph79%29.83 "Hg5 mi
12:00 AM77 °FPassing clouds.5 mph83%29.83 "Hg5 mi
Weather by CustomWeather, © 2015

See weather overviewHow to use our weather pages